Weather Roundup
Issued by NWS Springfield, MO

Home | Current Version | Previous Version | Text Only | Print | Product List | Glossary On
Versions: 1 2 3 4 5 6 7 8 9 10 11 12 13 14 15 16 17 18 19 20 21 22 23 24 25 26 27 28 29 30 31 32 33 34 35 36 37 38 39 40 41 42 43 44 45 46 47 48 49 50
000
NZUS99 KSGF 270807
HRRSGF

HOURLY WEATHER
NATIONAL WEATHER SERVICE SPRINGFIELD MO
300 AM CDT THU APR 27 2017

......SGF CWA......

CITY           SKY/WX    TMP DP  RH WIND       PRES   REMARKS
SPRINGFIELD    CLOUDY    43  41  93 W8        29.67R
JOPLIN         CLEAR     41  39  93 W6        29.71F
WEST PLAINS    LGT RAIN  46  42  86 W7G16     29.65R
ROLLA          CLOUDY    43  43 100 W12       29.60S
OSAGE BEACH    CLOUDY    44  41  89 VRB5      29.65R
BRANSON        MOCLDY    43  41  93 CALM      29.69S

......SURROUNDING SGF CWA......

CITY           SKY/WX    TMP DP  RH WIND       PRES   REMARKS
CHANUTE        CLEAR     39  36  89 W5        29.71F
PARSONS        CLEAR     38  37  97 CALM      29.73S FOG
COFFEYVILLE    CLEAR     42  39  89 W3        29.73S
EMPORIA        CLEAR     38  36  92 W6        29.71F WCI  33
GROVE OK       CLEAR     45  45 100 CALM      29.73S FOG
ROGERS AR      CLEAR     42  41  96 W5        29.71F
SILOAM SPRINGS CLOUDY    39  36  87 CALM      29.71F VSB 1/2
HARRISON AR    CLEAR     42  41  96 W10       29.67F
NEAR YELLVILLE PTCLDY   N/A N/A N/A SW3       29.65F

......KANSAS AND MISSOURI......

CITY           SKY/WX    TMP DP  RH WIND       PRES   REMARKS
KANSAS CTY INT CLOUDY    42  33  70 NW8       29.66S
DOWNTOWN KC    CLOUDY    44  34  67 NW9       29.67S
COLUMBIA       CLOUDY    44  42  93 W10       29.60F
SEDALIA        CLOUDY    44  42  93 W8        29.65S
ST JOSEPH      CLOUDY    43  34  70 W8        29.66F
ST LOUIS       CLOUDY    50  46  86 W14G22    29.54R
SPIRIT OF STL  CLOUDY    49  47  93 W15G22    29.54S
KIRKSVILLE     CLOUDY    41  41 100 NW10      29.57F
WICHITA        CLEAR     38  36  92 CALM      29.73F
TOPEKA         CLOUDY    45  36  70 NW7       29.69F
OLATHE         CLOUDY    42  35  76 NW14      29.67S

......TENNESSEE......

CITY           SKY/WX    TMP DP  RH WIND       PRES   REMARKS
MEMPHIS        CLOUDY    53  50  89 NW9       29.65R
NASHVILLE      RAIN      64  62  93 SE10      29.61F FOG

......ARKANSAS.......

CITY           SKY/WX    TMP DP  RH WIND       PRES   REMARKS
FAYETTEVILLE   FOG       39  39 100 CALM      29.71S VSB 1/4
FT SMITH       CLEAR     46  42  86 W6        29.72F
LITTLE ROCK    CLEAR     49  46  90 W8        29.72R

......OKLAHOMA.......

CITY           SKY/WX    TMP DP  RH WIND       PRES   REMARKS
TULSA          CLEAR     42  40  92 W5        29.74S
PONCA CITY     CLEAR     37  35  92 CALM      29.75F
MCALESTER      PTCLDY    44  42  93 CALM      29.77S
OKLAHOMA CITY  PTCLDY    39  38  96 S5        29.76S

......IOWA............

CITY           SKY/WX    TMP DP  RH WIND       PRES   REMARKS
DES MOINES     CLOUDY    39  33  79 NW14      29.58R WCI  31
QUAD CITIES    RAIN      43  40  89 NW14G24   29.46S FOG

......ILLINOIS........

CITY           SKY/WX    TMP DP  RH WIND       PRES   REMARKS
QUINCY         LGT RAIN  43  41  93 W10       29.54R
CHICAGO        LGT RAIN  60  57  89 S12       29.35F




USA.gov is the U.S. government's official web portal to all federal, state and local government web resources and services.